Regional Weather Roundup
Issued by NWS

Home | Current Version | Previous Version | Graphics & Text | Print | Product List | Glossary On
Versions: 1 2 3 4 5 6 7 8 9 10 11 12 13 14 15 16 17 18 19 20 21 22 23 24 25 26 27 28 29 30 31 32 33 34 35 36 37 38 39 40 41 42 43 44 45
000
ASUS45 KSLC 270510
RWRUT

UTAH REGIONAL WEATHER ROUNDUP
NATIONAL WEATHER SERVICE SALT LAKE CITY UT
1000 PM MST FRI DEC 26 2014

UTZ001>011-023>025-270600-

NORTHERN UTAH

CITY           SKY/WX    TMP DP  RH WIND       PRES   REMARKS
BRIGHAM CITY   MOCLDY    16  10  78 CALM      30.22R
HILL AFB       PTCLDY    19  10  68 SE6       30.19R WCI  11
LOGAN          CLOUDY    11   7  84 CALM      30.21R
OGDEN          PTCLDY    19  12  74 S3        30.19R
PROVO AIRPORT  PTCLDY    18  12  79 CALM      30.20R
SALT LAKE CITY MOCLDY    24  18  77 CALM      30.20R
VERNAL         CLOUDY    22  10  60 CALM      30.10R
WENDOVER       CLOUDY    28  14  54 NW14      30.23R WCI  17
HEBER CITY     CLOUDY    12   9  85 CALM      30.14R
WEST JORDAN    CLOUDY    25  19  80 W6        30.20R WCI  18

$$

UTZ012>022-026-027-270600-

SOUTHERN/CENTRAL UTAH

CITY           SKY/WX    TMP DP  RH WIND       PRES   REMARKS
BLANDING       CLOUDY    22  16  78 W7        30.12R WCI  13
BRYCE CANYON   CLEAR      5   0  79 NW9       30.06R WCI  -9
CEDAR CITY     CLOUDY    16  11  80 N8        30.14R WCI   5
DELTA          CLOUDY    21  17  84 SE3       30.20R
MILFORD        CLOUDY    21  14  74 NW9       30.17R WCI  11
MOAB/CYNLANDS  CLOUDY    15  11  83 CALM      30.10R
PRICE          PTCLDY    21   5  50 NW9G17    30.07R WCI  11
ST GEORGE      PTCLDY    36  10  35 SW6       30.20R WCI  31
KANAB          CLEAR     27   9  46 N13G20    30.16R WCI  16

$$

REGIONAL REPORTS     COLORADO/ARIZONA

CITY           SKY/WX    TMP DP  RH WIND       PRES   REMARKS
CRAIG, CO      LGT SNOW  13   9  84 W9        30.06R FOG     WCI   1
GRAND JUNCTION PTCLDY    12   7  80 NE3       30.10R
RIFLE          MOCLDY    15   7  70 S3        30.08R
MONTROSE       LGT SNOW  22  18  85 SE3       30.08R FOG
CORTEZ         MOCLDY    18  13  80 NW7       30.04R WCI   9
PAGE, AZ       CLOUDY    33   6  32 W7        30.10R WCI  27
GRAND CANYON   CLEAR     13   8  81 NE7       30.06R WCI   3
KINGMAN        CLEAR     27  13  55 E3        30.14R
FLAGSTAFF      CLEAR     13   7  77 CALM      30.02R

$$

REGIONAL REPORTS    NEVADA/IDAHO/WYOMING

CITY           SKY/WX    TMP DP  RH WIND       PRES   REMARKS
LAS VEGAS, NV  CLEAR     44   9  23 NW13      30.18R
ELY            CLOUDY    19  15  84 N9        30.17R WCI   8
ELKO           CLOUDY    25  14  63 VRB3      30.23R
POCATELLO, ID  CLOUDY    22  19  89 SW10      30.21R WCI  11
BURLEY         CLOUDY    27  20  75 W9        30.22R WCI  18
EVANSTON, WY   PTCLDY     5   0  79 SW7       30.06R WCI  -7
ROCK SPRINGS   LGT SNOW  11   9  92 S3        30.05R FOG

$$


USA.gov is the U.S. government's official web portal to all federal, state and local government web resources and services.